Regional Weather Roundup
Issued by NWS

Home | Current Version | Previous Version | Text Only | Print | Product List | Glossary On
Versions: 1 2 3 4 5 6 7 8 9 10 11 12 13 14 15 16 17 18 19 20 21 22 23 24 25 26 27 28 29 30 31 32 33 34 35 36 37 38 39 40 41 42 43 44 45 46 47 48 49 50
000
ASUS46 KSTO 220815
RWRCA

NORTHERN AND CENTRAL CA REGIONAL WEATHER ROUNDUP
NATIONAL WEATHER SERVICE SACRAMENTO CA
1200 AM PST SUN JAN 22 2017

NOTE: FAIR INDICATES FEW OR NO CLOUDS BELOW 12,000 FEET WITH NO
SIGNIFICANT WEATHER AND/OR OBSTRUCTIONS TO VISIBILITY.

CAZ001-003-220900-
NORTHWEST AREA

CITY           SKY/WX    TMP DP  RH WIND       PRES   REMARKS
CRESCENT CITY  RAIN      50  43  77 S20G29    29.40F
UKIAH          RAIN      45  41  86 S15G22    29.66F FOG
$$

CAZ006-505>513-220900-
BAY AREA

CITY           SKY/WX    TMP DP  RH WIND       PRES   REMARKS
SANTA ROSA     RAIN      47  45  93 SE15G21   29.71F
SAN RAFAEL     N/A       49  MM  MM MISG
NAPA           LGT RAIN  50  45  83 E18       29.75F
CONCORD        LGT RAIN  49  43  80 SE6       29.75F
OAKLAND CITY   N/A      MM  MM  MM MISG
OAKLAND        CLOUDY    53  44  71 SE25G37   29.73F
SAN FRAN CITY  N/A       49  MM  82 MISG
SAN FRAN ARPT  CLOUDY    52  42  69 SE24G33   29.70F
LIVERMORE      LGT RAIN  50  39  66 SE5       29.74F
HAYWARD        CLOUDY    52  40  63 SE18G29   29.73F
REDWOOD CITY   N/A       51  MM  75 MISG
MOFFETT ARPT   CLOUDY    52  40  63 SE21G36   29.73F
SAN JOSE ARPT  LGT RAIN  52  41  66 SE32G44   29.74F
$$
CAZ034-037-514>518-220900-
CENTRAL COAST

CITY           SKY/WX    TMP DP  RH WIND       PRES   REMARKS
WATSONVILLE    LGT RAIN  48  46  93 E8        29.82F
SALINAS        RAIN      51  44  77 E28G39    29.81F
MONTEREY       LGT RAIN  51  42  71 E9G20     29.81F
SAN LUIS OBISP LGT RAIN  53  48  83 SE15      29.97F
SANTA MARIA    LGT RAIN  51  48  89 SE7       30.02S
$$
CAZ015-016-220900-
NORTHERN SACRAMENTO VALLEY

CITY           SKY/WX    TMP DP  RH WIND       PRES   REMARKS
REDDING        LGT RAIN  46  43  89 S20G26    29.71F
RED BLUFF      RAIN      47  44  90 SE28G35   29.73F
OROVILLE       RAIN      47  43  86 SE25G33   29.82F FOG
$$
CAZ016>018-220900-
SOUTHERN SACRAMENTO VALLEY

CITY           SKY/WX    TMP DP  RH WIND       PRES   REMARKS
AUBURN         CLOUDY    43  41  93 SE14      29.82F
BEALE AFB      LGT RAIN  47  47 100 SE25      29.79F
LINCOLN        CLOUDY    46  43  87 SE18G25   29.81F
MARYSVILLE     LGT RAIN  48  44  86 SE17G28   29.81F
SAC INTL ARPT  LGT RAIN  49  47  93 SE26G36   29.79F
MATHER AIRPORT NOT AVBL
DOWNTOWN SAC   N/A       48  MM  MM MISG
SAC EXEC ARPT  LGT RAIN  48  47  96 SE18G29   29.81F
VACAVILLE      LGT RAIN  49  46  90 SE18G31   29.79F
TRAVIS AFB     LGT RAIN  48  45  87 SE25G32   29.75F
$$
CAZ019>021-220900-
SAN JOAQUIN VALLEY

CITY           SKY/WX    TMP DP  RH WIND       PRES   REMARKS
STOCKTON       LGT RAIN  50  47  89 SE23G32   29.81F
MODESTO        CLOUDY    51  43  74 SE22G37   29.83F
MERCED         LGT RAIN  48  43  82 SE24G32   29.92S
LEMOORE        LGT RAIN  48  45  89 S10       29.99S
FRESNO         LGT RAIN  48  42  80 SE9       29.98R
HANFORD        CLOUDY    49  46  90 SE5       29.98F
PORTERVILLE    CLOUDY    48  43  82 E5        29.99F
BAKERSFIELD    LGT RAIN  51  40  65 NE3       29.98S
$$
CAZ011-012-071-220900-
NORTHERN MOUNTAINS

CITY           SKY/WX    TMP DP  RH WIND       PRES   REMARKS
YREKA          CLOUDY    39  31  72 S28G39    29.58R WCI  28
MOUNT SHASTA   HVY SNOW  33  31  92 VRB5      29.61F VSB 1/4 WCI  29
ALTURAS        CLOUDY    34  27  75 S10       29.71R WCI  26
$$
CAZ011-012-071-220900-
SIERRA NEVADA MTNS

CITY           SKY/WX    TMP DP  RH WIND       PRES   REMARKS
BLUE CANYON    SNOW      29  28  96 VRB7G18   29.76S WCI  22
TRUCKEE        LGT SNOW  28  27  93 N3        29.75S
TAHOE VLY ARPT LGT SNOW  28  24  85 CALM      29.73F VSB 3/4
MAMMOTH LAKES  CLOUDY    20  16  83 CALM      29.84F
$$




USA.gov is the U.S. government's official web portal to all federal, state and local government web resources and services.